Weather observations for the past three days for
Fargo, Hector International Airport
Imperial (Metric)
Date Time (cdt) Wind (mph) Vis. (mi.) Weather Sky Cond. Temperature (ºF) Relative Humidity Wind Chill (°F) Heat Index (°F) Pressure Precipitation (in)
Air Dwpt 6 hour altimeter (in) sea level (mb) 1 hr 3 hr 6 hr
Max. Min.
19 06:53 SE 7 10.00 Fair CLR 64.9 59 70 63 81% 30.04 1017.0
19 05:53 SE 6 10.00 Fair CLR 64 57.9 81% 30.04 1017.1
19 04:53 SE 6 10.00 A Few Clouds FEW065 64 57.9 81% 30.04 1017.0
19 03:53 S 8 10.00 Fair CLR 66 57.9 75% 30.04 1016.9
19 02:53 S 7 10.00 Mostly Cloudy BKN065 66.9 57 71% 30.06 1017.4
19 01:53 S 8 10.00 Fair CLR 68 57 68% 30.05 1017.3
19 00:53 S 9 10.00 Fair CLR 70 55.9 80.1 70 61% 30.05 1017.4
18 23:53 S 8 10.00 Fair CLR 71.1 55.9 59% 30.06 1017.5
18 22:53 S 8 10.00 Fair CLR 73 55.9 55% 30.07 1017.8
18 21:53 S 6 10.00 Fair CLR 73.9 55.9 54% 30.06 1017.8
18 20:53 S 7 10.00 Fair CLR 75.9 55.9 50% 78 30.06 1017.6
18 19:53 S 9 10.00 A Few Clouds FEW060 78.1 57 48% 79 30.07 1018.1
18 18:53 S 9 10.00 A Few Clouds FEW060 80.1 57 82.9 77 45% 80 30.08 1018.5
18 17:53 SE 10 10.00 Fair CLR 81 55.9 42% 81 30.09 1018.8
18 16:53 Vrbl 3 10.00 Fair CLR 82 55 40% 81 30.11 1019.3
18 15:53 SE 8 10.00 A Few Clouds FEW040 81 57 44% 81 30.12 1019.9
18 14:53 S 6 10.00 Fair CLR 80.1 55.9 44% 80 30.13 1020.2
18 13:53 SW 7 10.00 Fair CLR 80.1 55 42% 80 30.15 1020.9
18 12:53 SW 6 10.00 Fair CLR 78.1 55 78.1 55.9 45% 79 30.17 1021.6
18 11:53 SW 6 10.00 Fair CLR 75.9 53.1 45% 78 30.18 1022.0
18 10:53 S 9 10.00 Fair CLR 73.9 55 52% 30.19 1022.3
18 09:53 SE 5 10.00 Fair CLR 71.1 55.9 59% 30.19 1022.3
18 08:53 S 8 10.00 Fair CLR 66.9 55 66% 30.2 1022.6
18 07:53 S 3 10.00 Fair CLR 63 55.9 78% 30.21 1022.8
18 06:53 S 3 10.00 Fair CLR 55.9 52 57.9 53.1 87% 30.21 1022.8
18 05:53 S 3 10.00 Fair CLR 54 52 93% 30.21 1022.9
18 04:53 S 5 10.00 Fair CLR 55.9 52 87% 30.2 1022.8
18 03:53 Calm 10.00 Fair CLR 55 51.1 87% 30.2 1022.7
18 02:53 SE 3 10.00 Fair CLR 55.9 52 87% 30.2 1022.7
18 01:53 Calm 10.00 Fair CLR 55.9 51.1 84% 30.2 1022.7
18 00:53 Calm 10.00 Fair CLR 55.9 51.1 73.9 55.9 84% 30.19 1022.3
17 23:53 Calm 10.00 Fair CLR 60.1 52 75% 30.19 1022.4
17 22:53 Calm 10.00 Fair CLR 60.1 52 75% 30.19 1022.2
17 21:53 NE 3 10.00 Fair CLR 64.9 53.1 66% 30.18 1022.1
17 20:53 E 3 10.00 Fair CLR 68 54 61% 30.18 1021.8
17 19:53 NE 6 10.00 Fair CLR 73 52 48% 30.18 1021.8
17 18:53 E 7 10.00 Mostly Cloudy BKN055 73 53.1 75.9 70 50% 30.18 1021.9
17 17:53 E 6 10.00 Fair CLR 75 52 45% 78 30.18 1022.0
17 16:53 Calm 10.00 Fair CLR 75 52 45% 78 30.19 1022.2
17 15:53 E 5 10.00 A Few Clouds FEW050 73.9 51.1 45% 30.19 1022.5
17 14:53 N 9 G 17 10.00 A Few Clouds FEW049 71.1 51.1 49% 30.2 1022.7
17 13:53 Vrbl 5 10.00 Mostly Cloudy BKN048 72 51.1 48% 30.21 1022.9
17 12:53 N 7 10.00 Partly Cloudy SCT040 73 53.1 73 55 50% 30.22 1023.2
17 11:53 NW 8 10.00 Partly Cloudy SCT036 68 52 57% 30.22 1023.4
17 10:53 N 7 10.00 A Few Clouds FEW029 66.9 54 63% 30.22 1023.4
17 09:53 NW 6 10.00 Fair CLR 64 54 70% 30.23 1023.6
17 08:53 NW 5 10.00 Fair CLR 61 54 78% 30.23 1023.5
17 07:53 N 10 10.00 Fair CLR 57.9 52 81% 30.2 1022.6
17 06:53 N 6 10.00 Fair CLR 55 52 61 53.1 90% 30.18 1022.1
17 05:53 N 8 10.00 Fair CLR 53.1 50 89% 30.15 1021.2
17 04:53 N 6 10.00 Fair CLR 54 51.1 90% 30.14 1020.4
17 03:53 N 7 10.00 Fair CLR 55 51.1 87% 30.12 1019.8
17 02:53 N 7 10.00 Fair CLR 55 52 90% 30.1 1019.4
17 01:53 N 8 10.00 Fair CLR 57 52 83% 30.09 1018.8
17 00:53 N 9 10.00 Fair CLR 61 52 73 60.1 72% 30.09 1018.7
16 23:53 N 9 10.00 Fair CLR 62.1 52 70% 30.07 1018.0
16 22:53 N 8 10.00 Mostly Cloudy BKN070 64 52 65% 30.05 1017.3
16 21:53 N 8 10.00 Fair CLR 64.9 53.1 66% 30.03 1016.8
16 20:53 N 13 10.00 Mostly Cloudy BKN070 69.1 54 59% 30.01 1016.2
16 19:53 N 9 10.00 A Few Clouds FEW070 FEW100 71.1 57 61% 30 1015.6
16 18:53 N 13 G 23 10.00 Partly Cloudy FEW065 SCT095 72 57 81 71.1 59% 29.99 1015.4
16 17:53 N 9 10.00 Mostly Cloudy BKN070 BKN085 72 57 59% 29.97 1014.8
16 16:53 N 16 10.00 Mostly Cloudy SCT055 BKN075 75 55.9 52% 78 29.96 1014.2
16 15:53 NW 12 G 24 10.00 Partly Cloudy SCT060 80.1 55 42% 80 29.95 1013.9
16 14:53 N 15 G 25 10.00 Mostly Cloudy SCT060 BKN070 78.1 55 45% 79 29.94 1013.7
16 13:53 NW 14 10.00 Partly Cloudy FEW060 SCT075 79 55.9 45% 80 29.94 1013.6
16 12:53 NW 14 G 21 10.00 A Few Clouds FEW060 78.1 55.9 47% 79 29.95 1014.0
16 11:53 NW 12 10.00 Fair CLR 75.9 55 48% 78 29.95 1013.8
16 10:53 NW 9 10.00 Fair CLR 73 55 53% 29.94 1013.6
16 09:53 NW 7 10.00 Partly Cloudy SCT090 73.9 57 56% 29.94 1013.5
16 08:53 Vrbl 5 10.00 Fair CLR 70 60.1 71% 29.93 1013.2
16 07:53 N 6 10.00 Fair CLR 66 59 78% 29.93 1013.2
Date Time (cdt) Wind (mph) Vis. (mi.) Weather Sky Cond. Air Dwpt Max. Min. Relative Humidity Wind Chill (°F) Heat Index (°F) altimeter (in) sea level (mb) 1 hr 3 hr 6 hr
6 hour
Temperature (ºF) Pressure Precipitation (in)